Home > Weather > Bradford > Past weeks

Flag for United Kingdom Past Weather in Bradford, England, United Kingdom — Yesterday and Last 2 Weeks

Now
61 °F

Scattered clouds.


Feels Like: 61 °F
Forecast: 52 / 64 °F
Wind: 14 mph from West

Location: Leeds And Bradford

Current Time: Jul 25, 2016 at 11:02:11 AM

Latest Report: Jul 25, 2016 at 10:20 AM


Visibility: N/A

Pressure: 30.01 "Hg

Humidity: 77%

Dew Point: 54 °F

Location of BradfordLocation

Past Weather in Bradford — Graph

°F

Bradford Temperature Yesterday

Maximum temperature yesterday: 68 °F (at 12:20 PM)
Minimum temperature yesterday: 55 °F (at 4:20 AM)
Average temperature yesterday: 62 °F

High & Low Weather Summary for the Past Weeks

 TemperatureHumidityPressure
High82 °F (Jul 19, 1:50 PM)100% (Jul 11, 5:20 AM)30.27 "Hg (Jul 11, 5:20 AM)
Low48 °F (Jul 14, 3:50 AM)45% (Jul 19, 2:20 PM)29.45 "Hg (Jul 11, 3:50 AM)
Average62 °F82%30.00 "Hg
* Reported Jul 10 10:20 AM — Jul 25 10:20 AM, Bradford, Weather by CustomWeather, © 2016

Note: Actual official high and low records may vary slightly from our data, if they occured in-between our weather recording intervals... More about our weather records

Advertising

Bradford Weather History for the Previous 24 Hours

Scroll right to see more
 ConditionsComfort  
Time TempWeatherWind HumidityBarometerVisibility
10:20 AM
Mon, Jul 25
61 °FScattered clouds.14 mph77%30.01 "HgN/A
9:20 AM59 °FScattered clouds.14 mph82%30.01 "HgN/A
8:50 AM59 °FScattered clouds.14 mph88%30.01 "HgN/A
8:20 AM59 °FScattered clouds.15 mph88%30.01 "HgN/A
7:50 AM59 °FPassing clouds.12 mph82%30.01 "HgN/A
7:20 AM57 °FPassing clouds.12 mph88%30.01 "HgN/A
6:50 AM55 °FPassing clouds.13 mph94%29.98 "HgN/A
6:20 AM55 °FPassing clouds.12 mph94%29.98 "HgN/A
5:50 AM55 °FPassing clouds.7 mph94%29.98 "HgN/A
5:20 AM55 °FPassing clouds.7 mph94%29.98 "HgN/A
4:50 AM55 °FPassing clouds.10 mph100%29.98 "HgN/A
4:20 AM55 °FPassing clouds.8 mph100%29.98 "HgN/A
3:50 AM57 °FPassing clouds.9 mph94%29.98 "HgN/A
3:20 AM57 °FPassing clouds.9 mph94%29.98 "HgN/A
2:50 AM57 °FPassing clouds.10 mph100%29.98 "HgN/A
2:20 AM57 °FPassing clouds.12 mph100%29.98 "HgN/A
1:50 AM59 °FPassing clouds.13 mph94%29.95 "HgN/A
1:20 AM59 °FPassing clouds.10 mph100%29.95 "HgN/A
12:50 AM59 °FPassing clouds.12 mph100%29.98 "HgN/A
12:20 AM59 °FPassing clouds.10 mph94%29.98 "HgN/A
11:50 PM
Sun, Jul 24
57 °FClear.3 mph100%29.98 "Hg10 mi
11:20 PM59 °FPassing clouds.6 mph94%29.98 "HgN/A
10:50 PM59 °FPassing clouds.8 mph94%29.98 "HgN/A
10:20 PM61 °FPassing clouds.9 mph88%29.98 "HgN/A
9:50 PM63 °FScattered clouds.10 mph88%29.98 "HgN/A
9:20 PM63 °FScattered clouds.6 mph100%29.95 "HgN/A
8:50 PM64 °FScattered clouds.7 mph94%29.95 "HgN/A
8:20 PM64 °FScattered clouds.7 mph94%29.95 "HgN/A
7:50 PM64 °FScattered clouds.9 mph94%29.95 "HgN/A
7:20 PM64 °FPartly sunny.10 mph94%29.95 "HgN/A
6:50 PM64 °FBroken clouds.9 mph94%29.95 "HgN/A
6:20 PM64 °FBroken clouds.3 mph94%29.95 "HgN/A
5:50 PM64 °FSprinkles. Broken clouds.9 mph94%29.98 "HgN/A
5:20 PM66 °FPartly sunny.8 mph83%29.98 "HgN/A
4:50 PM66 °FPartly sunny.8 mph83%29.98 "HgN/A
4:20 PM66 °FDrizzle. Partly sunny.6 mph88%29.98 "HgN/A
3:50 PM68 °FScattered clouds.8 mph83%29.98 "HgN/A
3:20 PM66 °FScattered clouds.7 mph83%29.98 "HgN/A
2:50 PM68 °FScattered showers. Scattered clouds.8 mph83%29.98 "HgN/A
2:20 PM68 °FSprinkles. Scattered clouds.9 mph83%30.01 "HgN/A
1:50 PM66 °FScattered showers. Scattered clouds.5 mph88%30.01 "HgN/A
1:20 PM66 °FSprinkles. Scattered clouds.9 mph88%30.01 "HgN/A
12:50 PM66 °FSprinkles. Scattered clouds.6 mph88%30.01 "HgN/A
12:20 PM68 °FScattered clouds.7 mph83%30.01 "HgN/A
11:50 AM66 °FScattered clouds.8 mph88%30.01 "HgN/A
11:20 AM66 °FScattered clouds.7 mph83%30.01 "HgN/A
Weather by CustomWeather, © 2016

See weather overviewHow to use our weather pages